User: anonymous   Login
Location: Caribou
(46.8667°N, 68.0167°W)
Time: 16:46:17
(UTC-04:00)
Language:

SL-08 RB Rocket - Orbit

View from above orbital plane
View from above orbital plane
View from above satellite
View from above satellite

Ground track
Ground track

The orbit data is extracted from the following two-line orbital elements,

1 26387U 00033D   17084.82019148 +.00000069 +00000-0 +20342-4 0  9995
2 26387 097.9798 151.2046 0025337 240.5173 238.6665 14.68249899895646
Epoch (UTC): 25 March 2017 19:41:04
Eccentricity: 0.0025337
inclination: 97.9798°
perigee height: 649 km
apogee height: 684 km
right ascension of ascending node: 151.2046°
argument of perigee: 240.5173°
revolutions per day: 14.68249899
mean anomaly at epoch: 238.6665°
orbit number at epoch: 89564

The dashed part of the orbit path shows where the satellite is in the earth's shadow,  

DLR